Flag for Norway Weather past 2 weeks in Brønnøysund, Norway

Now
36 °F

Clear.


Feels Like: 29 °F
Forecast: 44 / 53 °F
Wind: 8 mph from Northeast

Location: Bronnoysund / Bronnoy

Current Time: May 4, 2015 at 5:15:08 AM

Latest Report: May 4, 2015 at 4:50 AM


Visibility: N/A

Pressure: 29.89 "Hg

Humidity: 75%

Dew point: 28 °F

Location of BrønnøysundLocation

Historic Weather in Brønnøysund — Graph

°F

Brønnøysund temperature yesterday

Maximum temperature yesterday: 45 °F (at 11:50 AM)
Minimum temperature yesterday: 36 °F (at 12:20 AM)
Average temperature yesterday: 40 °F

Past Weeks' High & Low Weather Summary

 TemperatureHumidityPressure
High52 °F (Apr 29, 1:20 PM)100% (Apr 21, 10:20 PM)30.36 "Hg (Apr 21, 10:20 PM)
Low32 °F (Apr 29, 4:50 AM)37% (Apr 27, 5:20 PM)29.18 "Hg (Apr 26, 5:50 AM)
Average41 °F76%29.80 "Hg
* Reported Apr 19 3:20 AM — May 4 3:50 AM, Brønnøysund, Weather by CustomWeather, © 2015

Note: Actual official high and low records may vary slightly from our data, if they occured in-between our weather recording intervals... More about our weather records

Advertising

Brønnøysund weather history for previous 24 hours

 ConditionsComfort  
Time TempWeatherWind HumidityBarometerVisibility
3:50 AM
Mon, May 4
36 °FClear.8 mph81%29.89 "HgN/A
3:20 AM36 °FClear.7 mph81%29.89 "HgN/A
2:50 AM36 °FClear.6 mph81%29.89 "HgN/A
2:20 AM36 °FClear.3 mph87%29.89 "HgN/A
1:50 AM36 °FClear.2 mph87%29.89 "HgN/A
1:20 AM36 °FClear.5 mph87%29.89 "HgN/A
12:50 AM36 °FClear.5 mph87%29.89 "HgN/A
12:20 AM36 °FClear.5 mph87%29.92 "HgN/A
11:50 PM
Sun, May 3
36 °FClear.3 mph87%29.92 "HgN/A
11:20 PM37 °FClear.2 mph81%29.92 "Hg10 mi
10:50 PM37 °FPassing clouds.5 mph87%29.92 "HgN/A
10:20 PM37 °FPassing clouds.3 mph87%29.89 "HgN/A
9:50 PM39 °FPassing clouds.6 mph81%29.89 "HgN/A
9:20 PM41 °FPassing clouds.5 mph76%29.89 "HgN/A
8:50 PM43 °FPassing clouds.6 mph71%29.89 "HgN/A
8:20 PM45 °FPassing clouds.10 mph71%29.89 "HgN/A
7:50 PM45 °FScattered showers. Passing clouds.9 mph66%29.89 "HgN/A
7:20 PM43 °FPassing clouds.9 mph71%29.89 "HgN/A
6:50 PM43 °FPassing clouds.8 mph71%29.89 "HgN/A
6:20 PM45 °FPassing clouds.7 mph66%29.89 "HgN/A
5:50 PM45 °FPassing clouds.7 mph61%29.86 "HgN/A
5:20 PM43 °FScattered clouds.9 mph66%29.86 "HgN/A
4:50 PM45 °FScattered clouds.6 mph66%29.86 "HgN/A
4:20 PM43 °FPassing clouds.6 mph71%29.86 "HgN/A
3:50 PM43 °FScattered showers. Scattered clouds.8 mph71%29.86 "HgN/A
3:20 PM43 °FScattered showers. Scattered clouds.9 mph71%29.86 "HgN/A
2:50 PM45 °FScattered showers. Scattered clouds.7 mph66%29.86 "HgN/A
2:20 PM45 °FScattered clouds.8 mph66%29.86 "HgN/A
1:50 PM45 °FScattered showers. Scattered clouds.9 mph66%29.83 "HgN/A
1:20 PM43 °FScattered showers. Scattered clouds.7 mph66%29.83 "HgN/A
12:50 PM43 °FRain showers. Scattered clouds.9 mph71%29.83 "HgN/A
12:20 PM41 °FSprinkles. Scattered clouds.8 mph76%29.83 "HgN/A
11:50 AM45 °FScattered clouds.9 mph71%29.83 "HgN/A
11:20 AM43 °FScattered showers. Scattered clouds.9 mph71%29.83 "HgN/A
10:50 AM41 °FPartly sunny.8 mph76%29.80 "HgN/A
10:20 AM43 °FBroken clouds.9 mph76%29.80 "HgN/A
9:50 AM41 °FPassing clouds.8 mph76%29.80 "HgN/A
9:20 AM43 °FPartly sunny.8 mph71%29.80 "HgN/A
8:50 AM41 °FBroken clouds.9 mph81%29.80 "HgN/A
8:20 AM39 °FMostly cloudy.6 mph87%29.80 "HgN/A
7:50 AM37 °FMostly cloudy.7 mph93%29.80 "HgN/A
7:20 AM39 °FMostly cloudy.3 mph87%29.77 "HgN/A
6:50 AM36 °FPartly sunny.2 mph93%29.77 "HgN/A
6:20 AM36 °FPartly sunny.6 mph93%29.77 "HgN/A
5:50 AM37 °FMore clouds than sun.12 mph87%29.77 "HgN/A
5:20 AM37 °FMostly cloudy.7 mph87%29.77 "HgN/A
Weather by CustomWeather, © 2015

See weather overviewHow to use our weather pages